Regional Weather Roundup
Issued by NWS

Home | Current Version | Previous Version | Text Only | Print | Product List | Glossary Off
Versions: 1 2 3 4 5 6 7 8 9 10 11 12 13 14 15 16 17 18 19 20 21 22 23 24 25 26 27 28 29 30 31 32 33 34 35 36 37 38 39 40 41 42 43 44 45 46 47 48 49 50

000
ASUS43 KMKX 301600
RWRWI

WISCONSIN REGIONAL WEATHER ROUNDUP
NATIONAL WEATHER SERVICE MILWAUKEE/SULLIVAN WI
1100 AM CDT MON MAY 30 2016

NOTE: "FAIR" INDICATES FEW OR NO CLOUDS BELOW 12,000 FEET WITH NO
SIGNIFICANT WEATHER AND/OR OBSTRUCTIONS TO VISIBILITY.

WIZ001-002-006>008-014>016-023>028-301700-
NORTHWEST WISCONSIN

CITY           SKY/WX    TMP DP  RH WIND       PRES   REMARKS
SUPERIOR ARPT  SUNNY     75  52  43 W6        29.96F
ASHLAND        SUNNY     75  52  44 W10G16    29.98S
HAYWARD        SUNNY     73  50  44 SW3       30.00F
SIREN          SUNNY     75  51  43 W10       30.00F
CUMBERLAND     CLOUDY    72  52  49 SW9       30.01F
RICE LAKE      CLOUDY    74  53  47 SW6       30.02F
CHETEK         CLOUDY    73  57  56 SW3       30.02F
LADYSMITH      SUNNY     73  54  50 SW8       30.04S
EAU CLAIRE     NOT AVBL
MENOMONIE      MOSUNNY   76  59  54 S6        30.02F
NEW RICHMOND   MOSUNNY   72  56  58 SW6       30.01F
OSCEOLA        PTSUNNY   72  61  69 SW5       30.03F
$$

WIZ003>005-009-010-017-018-301700-
NORTH CENTRAL WISCONSIN

CITY           SKY/WX    TMP DP  RH WIND       PRES   REMARKS
MANITOWISH WTR NOT AVBL
ARBOR VITAE    SUNNY     72  55  54 W10G16    30.02R
WOODRUFF       SUNNY     72  55  54 W10G16    30.02R
RHINELANDER    MOSUNNY   72  50  45 W9G16     30.02F
EAGLE RIVER      N/A     69  47  45 W13       30.01S
LAND O LAKES   MOSUNNY   68  50  51 W12       30.01S
PHILLIPS       SUNNY     71  52  51 W6        30.02S
TOMAHAWK       SUNNY     70  50  48 W7        30.03S
MEDFORD        CLOUDY    70  49  47 W10       30.03S
MERRILL        SUNNY     71  51  48 N10G16    30.03S
$$

WIZ029-030-035-036-043>047-301700-
CENTRAL WISCONSIN

CITY           SKY/WX    TMP DP  RH WIND       PRES   REMARKS
WAUSAU         SUNNY     74  49  41 W10       30.01S
MOSINEE        SUNNY     72  50  46 W8        30.04S
MARSHFIELD     MOSUNNY   74  49  41 W8        30.04R
STEVENS POINT  SUNNY     72  46  40 NW7       30.04R
WAUPACA        SUNNY     77  49  37 NW7       30.03R
WAUTOMA        SUNNY    N/A N/A N/A W8        30.03S
WISC RAPIDS    SUNNY     77  44  30 W6        30.05R
CAMP DOUGLAS   NOT AVBL
$$

WIZ011>013-019>022-031-037>040-048>050-301700-
NORTHEAST WISCONSIN

CITY           SKY/WX    TMP DP  RH WIND       PRES   REMARKS
ANTIGO         SUNNY     69  53  57 NW10G17   30.03S
SHAWANO        SUNNY     75  52  43 NW8       30.01S
OCONTO         SUNNY     74  53  48 NW6       29.99S
STURGEON BAY   NOT AVBL
GREEN BAY      SUNNY     76  56  49 NW9       30.01S
MANITOWOC      NOT AVBL
APPLETON       MOSUNNY   73  55  53 W7        30.01S
CLINTONVILLE   SUNNY     73  46  38 W8        30.01S
OSHKOSH        SUNNY     75  58  55 NW6       30.02S
$$

WIZ032>034-041-042-053>061-301700-
SOUTHWEST WISCONSIN

CITY           SKY/WX    TMP DP  RH WIND       PRES   REMARKS
LA CROSSE      SUNNY     76  57  51 S6        30.03F
SPARTA         MOSUNNY   72  58  62 SW5       30.05S
VIROQUA        SUNNY     74  55  51 SW6       30.06F
BOSCOBEL       SUNNY     80  52  37 E3        30.06S HX  80
PRAIRIE DU CHI MOSUNNY   75  55  50 CALM      30.06S
PLATTEVILLE    SUNNY     76  54  46 NW7       30.08R
$$

WIZ056-057-062-063-064-067-068-301700-
SOUTH CENTRAL WISCONSIN

CITY           SKY/WX    TMP DP  RH WIND       PRES   REMARKS
REEDSBURG      SUNNY     74  52  44 CALM      30.05R
BARABOO/DELLS  SUNNY     75  46  35 NW5       30.05R
LONE ROCK      NOT AVBL
MINERAL POINT  SUNNY     77  50  38 NW6       30.08R
MADISON        MOSUNNY   76  59  55 NW7       30.04S
MIDDLETON      SUNNY     76  57  51 NW8       30.05S
WATERTOWN      SUNNY     74  62  64 NW6       30.03S
MONROE         SUNNY     77  52  41 NW6       30.06R
JANESVILLE     MOSUNNY   79  57  47 NW6       30.04R HX  80
$$

WIZ051-052-058>065-066-070>072-301700-
SOUTHEAST WISCONSIN

CITY           SKY/WX    TMP DP  RH WIND       PRES   REMARKS
MILWAUKEE      MOSUNNY   78  59  51 NW10      30.02R
WAUKESHA       SUNNY     75  59  57 W9        30.04S
MILWAUKEE/TIMM SUNNY     77  55  47 MISG      30.03R
RACINE         MOSUNNY   77  60  55 CALM      30.04R
BURLINGTON     SUNNY     76  57  51 W5        30.03S
KENOSHA        SUNNY     79  60  52 NW9       30.03R HX  80
FOND DU LAC    MOSUNNY   75  60  59 NW8       30.03R
SHEBOYGAN      SUNNY     76  57  51 W8        30.02R
WEST BEND      MOSUNNY   75  55  50 W7        30.03R
JUNEAU         MOSUNNY   74  58  58 W6        30.05R
$$

LSZ147-162-301700-
LAKE SUPERIOR

STATION/POSITION TIME  TEMP    WIND        PRES    WAVE
                       AIR SEA DIR/SP/G            HT/PER
                 (UTC) (F)     (DEG/KT/KT) (MB)    (FT/S)
W MID LAKE BUOY  1450   44 38  250/ 12/ 12 1014.0S   1/ 4
DEVILS ISLAND    1500   56     230/ 14/ 16 1014.5S
SAXON HARBOR     1540   72     240/  6/ 13 1014.6S
$$

LMZ867-665-643>646-301700-
LAKE MICHIGAN

STATION/POSITION TIME  TEMP    WIND        PRES    WAVE
                       AIR SEA DIR/SP/G            HT/PER
                 (UTC) (F)     (DEG/KT/KT) (MB)    (FT/S)
CHAMBERS ISLAND  1500   70     220/  4/  8 1015.6R
N MID LAKE BUOY  1450   52 48  220/  8/  8 1014.6F   1
NORTHPORT PIER   1500   70     300/  3/ 11 1014.9R
KEWAUNEE LAKESHO 1500   72     300/  6/  9 1015.3S
SHEBOYGAN LAKESH 1500   62     120/  3/  3 1016.5R
PORT WASHINGTON  1540   70     180/  7/  8 1016.9S
S MID LAKE BUOY  1450   58 54  240/  2/  2 1016.4F   0
KENOSHA   LAKESH 1500   67     160/  2/  4 1016.3S
$$

TC  - TEMPERATURE IN CELSIUS
VSB - VISIBILITY IN STATUTE MILES
WCI - WIND CHILL INDEX
HX  - HEAT INDEX





USA.gov is the U.S. government's official web portal to all federal, state and local government web resources and services.